Regional Weather Roundup
Issued by NWS

Home | Current Version | Previous Version | Graphics & Text | Print | Product List | Glossary Off
Versions: 1 2 3 4 5 6 7 8 9 10 11 12 13 14 15 16 17 18 19 20 21 22 23 24 25 26 27 28 29 30 31 32 33 34 35 36 37 38 39 40 41 42 43 44 45 46 47 48 49 50

583
ASUS43 KTOP 251708
RWRKS

WEATHER ROUNDUP FOR KANSAS
NATIONAL WEATHER SERVICE GOODLAND KS
1200 PM CDT THU AUG 25 2016

NOTE:  "FAIR" INDICATES FEW OR NO CLOUDS BELOW 12,000 FEET WITH NO
SIGNIFICANT WEATHER AND/OR OBSTRUCTIONS TO VISIBILITY.

KSZ001>006-013>018-027>032-041>047-251800-
NORTHWEST KANSAS

CITY           SKY/WX    TMP DP  RH WIND       PRES   REMARKS
GOODLAND       SUNNY     69  47  45 E15G21    30.25S
HAYS           CLOUDY    70  52  52 NE13      30.19F
HILL CITY      CLOUDY    67  58  72 N3        30.23R
RUSSELL        PTSUNNY   72  57  59 NE12      30.16F
$$

KSZ061>065-074>080-084>089-251800-
SOUTHWEST KANSAS

CITY           SKY/WX    TMP DP  RH WIND       PRES   REMARKS
DODGE CITY     CLOUDY    65  61  87 N10       30.19S
ELKHART          N/A     69  58  68 NE6         N/A
GARDEN CITY    CLOUDY    63  59  87 NE9       30.21R
GREAT BEND     CLOUDY    66  55  68 NE12      30.16F
LIBERAL        CLOUDY    66  61  82 N10       30.21S
PRATT          CLOUDY    65  60  85 N13       30.16R
$$

KSZ066>073-081>083-090>101-251800-
SOUTHEAST KANSAS

CITY           SKY/WX    TMP DP  RH WIND       PRES   REMARKS
CHANUTE        MOSUNNY   83  73  72 W9        30.09R
COFFEYVILLE    MOSUNNY   90  70  51 SW9       30.07F HX  95
HUTCHINSON     CLOUDY    73  65  75 N12       30.12S
MEDICINE LODGE   N/A     75  64  68 N5        30.15R
NEWTON         MOSUNNY   76  68  76 N7        30.12S
PARSONS        SUNNY     89  70  53 SW7       30.09R
WICHITA INTL   MOSUNNY   79  66  64 VRB3      30.09F
WICHITA JABRA  SUNNY     77  67  71 E5        30.10S
WICHITA MCCONL SUNNY     78  67  68 E5        30.09F
WINFIELD       SUNNY     81  72  74 N3        30.10S
$$

KSZ007>012-019>026-033>040-048>060-102>105-251800-
NORTHEAST KANSAS

CITY           SKY/WX    TMP DP  RH WIND       PRES   REMARKS
CONCORDIA      MOSUNNY   71  59  65 N9        30.16S
EMPORIA        MOSUNNY   76  68  76 SE6       30.09F
LAWRENCE       CLOUDY    80  70  71 SE3       30.07F
MANHATTAN      MOSUNNY   75  66  73 NE15      30.11R
MARYSVILLE     CLOUDY    68  61  77 N6        30.14S
OLATHE IND     PTSUNNY   78  69  73 CALM      30.09F
OLATHE EXE     PTSUNNY   78  71  79 VRB5      30.09F
SALINA         CLOUDY    73  63  70 N14       30.14F
TOPEKA BILLARD CLOUDY    75  70  84 N6        30.09R
TOPEKA FORBES  CLOUDY    78  69  73 CALM      30.09R
$$




USA.gov is the U.S. government's official web portal to all federal, state and local government web resources and services.